Weather History for Rome, NY

Change the Weather History Date:

Sunday, November 17, 2013

  Actual Average Record
Temperature  
Mean Temperature 53 °F -  
Max Temperature 60 °F 44 °F 64 °F (1987)
Min Temperature 46 °F 31 °F 16 °F (1980)
Degree Days  
Heating Degree Days 12    
Growing Degree Days 3 (Base 50)    
Moisture  
Dew Point 46 °F    
Average Humidity 79    
Maximum Humidity 89    
Minimum Humidity 63    
Precipitation  
Precipitation 0.64 in - - ()
Sea Level Pressure  
Sea Level Pressure 29.96 in    
Wind  
Wind Speed 9 mph (ESE)    
Max Wind Speed 16 mph    
Max Gust Speed 26 mph    
Visibility 8 miles    
Events Rain    
Averages and records for this station are not official NWS values.
T = Trace of Precipitation, MM = Missing Value Source: NWS Daily Summary

Daily Weather History Graph

Daily Weather History Graph

Search for Another Location

Airport:

Trip Planner

Search our weather history database for the weather conditions in past years. The results will help you decide how hot, cold, wet, or windy it might be!

Date:

Astronomy

Nov. 17, 2013 Rise Set
Actual Time 6:57 AM EST 4:35 PM EST
Civil Twilight 6:26 AM EST 5:06 PM EST
Nautical Twilight 5:51 AM EST 5:40 PM EST
Astronomical Twilight 5:18 AM EST 6:14 PM EST
Moon 4:50 PM EST (11/17) 6:48 AM EST (11/17)
Length of Visible Light 10h 39m
Length of Day
9h 37m
Full, 100% of the Moon is Illuminated
Nov 17
Full
Nov 25
Last Quarter
Dec 2
New
Dec 9
First Quarter
Dec 17
Full

Hourly Weather History & Observations

Time (EST) Temp. Windchill Dew Point Humidity Pressure Visibility Wind Dir Wind Speed Gust Speed Precip Events Conditions
12:53 AM 48.0 °F - 36.0 °F 63% 30.17 in 10.0 mi East 9.2 mph - N/A   Overcast
1:53 AM 46.9 °F - 36.0 °F 66% 30.16 in 10.0 mi East 6.9 mph - N/A   Overcast
2:53 AM 46.9 °F - 37.0 °F 68% 30.16 in 10.0 mi ESE 6.9 mph - N/A   Overcast
3:53 AM 46.0 °F 43.1 °F 37.0 °F 71% 30.16 in 10.0 mi SE 5.8 mph - N/A   Mostly Cloudy
4:00 AM 46.9 °F - 37.0 °F 68% 30.16 in 10.0 mi ESE 6.9 mph - N/A   Mostly Cloudy
4:53 AM 48.0 °F - 39.9 °F 74% 30.13 in 10.0 mi East 10.4 mph - N/A   Overcast
5:53 AM 48.0 °F - 39.9 °F 74% 30.09 in 10.0 mi East 10.4 mph - N/A   Overcast
6:53 AM 48.0 °F - 41.0 °F 77% 30.09 in 10.0 mi ESE 9.2 mph - N/A   Overcast
7:53 AM 48.9 °F - 42.1 °F 77% 30.08 in 10.0 mi ESE 10.4 mph - N/A   Overcast
8:53 AM 50.0 °F - 43.0 °F 77% 30.08 in 10.0 mi East 11.5 mph - N/A   Overcast
9:53 AM 52.0 °F - 44.1 °F 74% 30.08 in 10.0 mi ESE 10.4 mph - N/A   Overcast
10:53 AM 51.1 °F - 46.0 °F 83% 30.07 in 7.0 mi East 8.1 mph - 0.01 in Rain Rain
11:34 AM 50.0 °F - 46.9 °F 89% 30.03 in 2.5 mi ESE 9.2 mph - 0.10 in Rain Heavy Rain
11:48 AM 51.8 °F - 48.2 °F 88% 30.02 in 3.0 mi East 9.2 mph - 0.14 in Rain Rain
11:53 AM 51.1 °F - 48.0 °F 89% 30.01 in 4.0 mi ESE 8.1 mph - 0.14 in Rain Rain
12:53 PM 53.1 °F - 48.9 °F 86% 29.97 in 7.0 mi ESE 10.4 mph - 0.06 in Rain Rain
1:53 PM 54.0 °F - 50.0 °F 86% 29.96 in 4.0 mi East 3.5 mph - 0.07 in Rain Heavy Rain
2:53 PM 55.9 °F - 50.0 °F 80% 29.92 in 10.0 mi SSE 9.2 mph 20.7 mph 0.07 in Rain Light Rain
3:53 PM 57.0 °F - 50.0 °F 77% 29.90 in 10.0 mi South 10.4 mph 25.3 mph 0.03 in   Overcast
4:32 PM 57.0 °F - 50.0 °F 77% 29.88 in 10.0 mi SSE 8.1 mph - 0.00 in Rain Light Rain
4:53 PM 55.9 °F - 51.1 °F 84% 29.86 in 8.0 mi SE 8.1 mph 24.2 mph 0.01 in Rain Rain
5:08 PM 55.9 °F - 51.1 °F 84% 29.86 in 10.0 mi SE 8.1 mph - 0.01 in Rain Light Rain
5:53 PM 55.0 °F - 52.0 °F 89% 29.85 in 5.0 mi ESE 9.2 mph - 0.10 in Rain Light Rain
6:53 PM 55.9 °F - 52.0 °F 87% 29.81 in 6.0 mi SE 9.2 mph - 0.09 in Rain Rain
7:53 PM 57.0 °F - 52.0 °F 83% 29.74 in 10.0 mi SE 10.4 mph 20.7 mph 0.02 in   Overcast
8:53 PM 57.9 °F - 52.0 °F 81% 29.70 in 10.0 mi ESE 13.8 mph - 0.04 in Rain Light Rain
9:53 PM 59.0 °F - 51.1 °F 75% 29.66 in 10.0 mi SE 11.5 mph 19.6 mph 0.00 in   Overcast
10:53 PM 60.1 °F - 52.0 °F 75% 29.61 in 10.0 mi SSE 16.1 mph 26.5 mph 0.00 in   Overcast
11:53 PM 60.1 °F - 52.0 °F 75% 29.54 in 10.0 mi SSE 16.1 mph 26.5 mph 0.00 in   Overcast